Previsão horária em Sencha

Hoje, 28 Novembro, Sábado

Tempo Temperatura Precipitação Vento Pressão Humidade
00:00 +3°C° 0 mm 2 m/s 754 mmHg 82%
01:00 +3°C° 0 mm 2 m/s 754 mmHg 84%
02:00 +3°C° 0 mm 2 m/s 754 mmHg 87%
03:00 +4°C° 0.3 mm 1 m/s 754 mmHg 90%
04:00 +4°C° 0.3 mm 1 m/s 754 mmHg 93%
05:00 +4°C° 0.3 mm 1 m/s 754 mmHg 95%
06:00 +4°C° 0.3 mm 1 m/s 754 mmHg 96%
07:00 +4°C° 0.3 mm 1 m/s 754 mmHg 96%
08:00 +4°C° 0 mm 1 m/s 754 mmHg 95%
09:00 +4°C° 0.4 mm 1 m/s 754 mmHg 94%
10:00 +5°C° 0.4 mm 1 m/s 754 mmHg 92%
11:00 +5°C° 0.4 mm 1 m/s 754 mmHg 90%
12:00 +5°C° 0.3 mm 1 m/s 754 mmHg 89%
13:00 +5°C° 0.3 mm 1 m/s 754 mmHg 88%
14:00 +4°C° 0 mm 2 m/s 754 mmHg 86%
15:00 +5°C° 0.3 mm 1 m/s 753 mmHg 86%
16:00 +5°C° 0.3 mm 1 m/s 753 mmHg 86%
17:00 +5°C° 0.3 mm 1 m/s 753 mmHg 85%
18:00 +5°C° 0.4 mm 1 m/s 753 mmHg 86%
19:00 +4°C° 0.4 mm 1 m/s 753 mmHg 86%
20:00 +4°C° 0.4 mm 1 m/s 753 mmHg 86%
21:00 +4°C° 0.1 mm 1 m/s 753 mmHg 87%
22:00 +4°C° 0.1 mm 1 m/s 753 mmHg 87%
23:00 +5°C° 0.1 mm 1 m/s 754 mmHg 87%

Amanhã, 29 Novembro, Domingo

Tempo Temperatura Precipitação Vento Pressão Humidade
00:00 +5°C° 0 mm 1 m/s 754 mmHg 88%
01:00 +4°C° 0 mm 1 m/s 754 mmHg 89%
02:00 +4°C° 0 mm 1 m/s 754 mmHg 90%
03:00 +4°C° 0.1 mm 1 m/s 754 mmHg 92%
04:00 +4°C° 0.1 mm 1 m/s 754 mmHg 93%
05:00 +4°C° 0.1 mm 1 m/s 754 mmHg 95%
06:00 +4°C° 0.1 mm 1 m/s 754 mmHg 95%
07:00 +4°C° 0.1 mm 1 m/s 755 mmHg 95%
08:00 +4°C° 0.1 mm 1 m/s 755 mmHg 96%
09:00 +4°C° 0.1 mm 1 m/s 755 mmHg 95%
10:00 +4°C° 0.1 mm 1 m/s 755 mmHg 94%
11:00 +4°C° 0.1 mm 1 m/s 755 mmHg 94%
12:00 +3°C° 0.5 mm 0 m/s 756 mmHg 94%
13:00 +3°C° 0.5 mm 0 m/s 756 mmHg 95%
14:00 +3°C° 0.5 mm 0 m/s 756 mmHg 96%
15:00 +3°C° 0.4 mm 0 m/s 756 mmHg 96%
16:00 +3°C° 0.4 mm 0 m/s 756 mmHg 96%
17:00 +3°C° 0.4 mm 0 m/s 756 mmHg 96%
18:00 +4°C° 0.1 mm 1 m/s 757 mmHg 96%
19:00 +4°C° 0.1 mm 1 m/s 757 mmHg 96%
20:00 +4°C° 0.1 mm 1 m/s 757 mmHg 96%
21:00 +4°C° 0.2 mm 1 m/s 757 mmHg 95%
22:00 +4°C° 0.2 mm 1 m/s 757 mmHg 94%
23:00 +5°C° 0.2 mm 1 m/s 757 mmHg 94%

Depois de amanhã, 30 Novembro, Segunda-feira

Tempo Temperatura Precipitação Vento Pressão Humidade
00:00 +5°C° 0.2 mm 1 m/s 757 mmHg 94%
01:00 +5°C° 0.2 mm 1 m/s 757 mmHg 94%
02:00 +5°C° 0.2 mm 1 m/s 757 mmHg 94%
03:00 +3°C° 0.3 mm 2 m/s 757 mmHg 95%
04:00 +3°C° 0.3 mm 2 m/s 757 mmHg 95%
05:00 +3°C° 0.3 mm 2 m/s 757 mmHg 96%
06:00 +3°C° 0.4 mm 2 m/s 757 mmHg 96%
07:00 +3°C° 0.4 mm 2 m/s 757 mmHg 96%
08:00 +3°C° 0.4 mm 2 m/s 757 mmHg 95%
09:00 +3°C° 0.4 mm 2 m/s 758 mmHg 95%
10:00 +2°C° 0.4 mm 3 m/s 758 mmHg 95%
11:00 +2°C° 0.4 mm 3 m/s 758 mmHg 95%
12:00 +2°C° 0.9 mm 3 m/s 758 mmHg 95%
13:00 +3°C° 0.9 mm 2 m/s 758 mmHg 95%
14:00 +3°C° 0.9 mm 2 m/s 758 mmHg 95%
15:00 +2°C° 0.7 mm 3 m/s 758 mmHg 96%
16:00 +2°C° 0.7 mm 3 m/s 758 mmHg 96%
17:00 +2°C° 0.7 mm 3 m/s 758 mmHg 96%
18:00 +2°C° 0.8 mm 3 m/s 758 mmHg 96%
19:00 +2°C° 0.8 mm 3 m/s 759 mmHg 96%
20:00 +2°C° 0.8 mm 3 m/s 759 mmHg 96%
21:00 +2°C° 0.5 mm 3 m/s 759 mmHg 95%
22:00 +2°C° 0.5 mm 3 m/s 759 mmHg 95%
23:00 +2°C° 0.5 mm 3 m/s 759 mmHg 95%

1 Dezembro, Terça-feira

Tempo Temperatura Precipitação Vento Pressão Humidade
00:00 +1°C° 0.3 mm 3 m/s 759 mmHg 95%
01:00 0°C° 0.3 mm 4 m/s 759 mmHg 94%
02:00 0°C° 0.3 mm 4 m/s 759 mmHg 94%
03:00 0°C° 0.1 mm 4 m/s 759 mmHg 94%
04:00 +1°C° 0.1 mm 3 m/s 759 mmHg 93%
05:00 +1°C° 0.1 mm 3 m/s 759 mmHg 93%
06:00 +1°C° 0.1 mm 3 m/s 760 mmHg 93%
07:00 +1°C° 0.1 mm 3 m/s 760 mmHg 92%
08:00 +1°C° 0.1 mm 3 m/s 760 mmHg 92%
09:00 +1°C° 0 mm 3 m/s 760 mmHg 90%
10:00 +2°C° 0 mm 3 m/s 760 mmHg 88%
11:00 +2°C° 0 mm 3 m/s 760 mmHg 86%
12:00 +2°C° 0 mm 3 m/s 760 mmHg 84%
13:00 +3°C° 0 mm 2 m/s 760 mmHg 82%
14:00 +4°C° 0 mm 2 m/s 760 mmHg 80%
15:00 +2°C° 0 mm 3 m/s 760 mmHg 80%
16:00 +2°C° 0 mm 3 m/s 760 mmHg 81%
17:00 +1°C° 0 mm 3 m/s 760 mmHg 82%
18:00 +1°C° 0 mm 3 m/s 760 mmHg 83%
19:00 +1°C° 0 mm 3 m/s 761 mmHg 84%
20:00 +1°C° 0 mm 3 m/s 761 mmHg 86%
21:00 +1°C° 0 mm 3 m/s 761 mmHg 85%
22:00 +1°C° 0 mm 3 m/s 761 mmHg 84%
23:00 +1°C° 0 mm 3 m/s 761 mmHg 84%

2 Dezembro, Quarta-feira

Tempo Temperatura Precipitação Vento Pressão Humidade
00:00 0°C° 0 mm 3 m/s 761 mmHg 84%
01:00 0°C° 0 mm 3 m/s 761 mmHg 84%
02:00 -1°C° 0 mm 4 m/s 761 mmHg 85%
03:00 -2°C° 0.1 mm 4 m/s 761 mmHg 87%
04:00 -2°C° 0.1 mm 4 m/s 761 mmHg 90%
05:00 -2°C° 0.1 mm 4 m/s 761 mmHg 93%
06:00 -2°C° 0.1 mm 4 m/s 761 mmHg 93%
07:00 -2°C° 0.1 mm 4 m/s 761 mmHg 93%
08:00 -3°C° 0.1 mm 4 m/s 761 mmHg 93%
09:00 -2°C° 0 mm 4 m/s 761 mmHg 91%
10:00 -2°C° 0 mm 4 m/s 761 mmHg 89%
11:00 -2°C° 0 mm 4 m/s 761 mmHg 87%
12:00 -2°C° 0 mm 4 m/s 761 mmHg 88%
13:00 -1°C° 0 mm 4 m/s 761 mmHg 89%
14:00 -1°C° 0 mm 4 m/s 761 mmHg 90%
15:00 -1°C° 0 mm 4 m/s 761 mmHg 92%
16:00 -2°C° 0 mm 4 m/s 761 mmHg 93%
17:00 -2°C° 0 mm 4 m/s 761 mmHg 95%
18:00 -2°C° 0 mm 4 m/s 761 mmHg 94%
19:00 -1°C° 0 mm 4 m/s 761 mmHg 93%
20:00 -1°C° 0 mm 4 m/s 762 mmHg 92%
21:00 -1°C° 0 mm 4 m/s 762 mmHg 90%
22:00 -1°C° 0 mm 4 m/s 762 mmHg 88%
23:00 -1°C° 0 mm 4 m/s 762 mmHg 85%

3 Dezembro, Quinta-feira

Tempo Temperatura Precipitação Vento Pressão Humidade
00:00 -1°C° 0 mm 4 m/s 762 mmHg 85%
01:00 -1°C° 0 mm 4 m/s 762 mmHg 84%
02:00 -1°C° 0 mm 4 m/s 762 mmHg 84%
03:00 -2°C° 0 mm 4 m/s 762 mmHg 83%
04:00 -2°C° 0 mm 4 m/s 762 mmHg 83%
05:00 -2°C° 0 mm 4 m/s 761 mmHg 83%
06:00 -2°C° 0 mm 4 m/s 762 mmHg 85%
07:00 -3°C° 0 mm 4 m/s 762 mmHg 88%
08:00 -3°C° 0 mm 4 m/s 762 mmHg 91%
09:00 -3°C° 0 mm 4 m/s 762 mmHg 90%
10:00 -2°C° 0 mm 4 m/s 762 mmHg 88%
11:00 -2°C° 0 mm 4 m/s 762 mmHg 87%
12:00 -2°C° 0 mm 4 m/s 761 mmHg 88%
13:00 -2°C° 0 mm 4 m/s 761 mmHg 90%
14:00 -2°C° 0 mm 4 m/s 761 mmHg 92%
15:00 -2°C° 0.1 mm 4 m/s 761 mmHg 93%
16:00 -2°C° 0.1 mm 4 m/s 761 mmHg 94%
17:00 -2°C° 0.1 mm 5 m/s 761 mmHg 95%
18:00 -3°C° 0.1 mm 4 m/s 761 mmHg 94%
19:00 -3°C° 0.1 mm 4 m/s 761 mmHg 93%
20:00 -3°C° 0.1 mm 4 m/s 761 mmHg 92%
21:00 -3°C° 0 mm 4 m/s 761 mmHg 91%
22:00 -3°C° 0 mm 4 m/s 761 mmHg 90%
23:00 -2°C° 0 mm 3 m/s 761 mmHg 90%
Mostrar mais

Necessitamos do seu Consentimento

A Meteoprog e os seus Fornecedores de Serviços podem armazenar e aceder a dados pessoais como cookies, identificadores do dispositivo ou outras tecnologias semelhantes existentes no seu dispositivo e processar estes dados para personalizar conteúdos e anúncios, assim como funcionalidades nas redes sociais e análise de tráfego.

  • Armazenar e/ou aceder a informações no seu dispositivo

    Os cookies, identificadores do dispositivo ou outras informações podem ser armazenados ou acedidos no seu dispositivo, para os fins acima indicados.

  • Anúncios e conteúdos personalizados, medição de anúncios e conteúdos, dados sobre o público-alvo e desenvolvimento de produtos

    Os anúncios e os conteúdos podem ser personalizados com base num perfil. Podem ser adicionados dados adicionais para uma maior personalização dos anúncios e dos conteúdos. A eficácia dos anúncios e dos conteúdos pode ser medida. Podem ser obtidas informações sobre o público que visualizou os anúncios e os conteúdos. Estes dados podem ser usados para desenvolver ou melhorar sistemas, softwares ou a experiência do utilizador.

Ao clicar em "Eu concordo”, permitirá o uso de cookies, identificadores do dispositivo e web beacons mencionados ou outras tecnologias semelhantes. As configurações do navegador do seu dispositivo podem ser alteradas.

Para certos fins, podem ser invocados interesses legítimos ao invés de consentimento. Pode ler mais informação sobre este assunto na nossa Política de Privacidade e Cookies.